World > North America > United States > Iowa > Defiance  

Defiance, IA Hourly Weather Updates

Feedback E-mail the Weather

Quick Clicks

Defiance, IA Weather Maps

°F °C°F °C
Defiance Weather Map
UTC Time: 7/21/2024, 00:25
Your Time:

Defiance, IA Regional Weather

Expires:202407210100;;013651
ASUS43 KDMX 210006
RWRIA 

WEATHER ROUNDUP FOR IOWA
NATIONAL WEATHER SERVICE DES MOINES IA
700 PM CDT SAT JUL 20 2024

NOTE: "FAIR" INDICATES FEW OR NO CLOUDS BELOW 12,000 FEET WITH NO
SIGNIFICANT WEATHER AND/OR OBSTRUCTIONS TO VISIBILITY.

* - THESE STATIONS ARE NOT NWS STATIONS...THUS NOT UNDER NWS
QUALITY CONTROL.  THEY ALSO DO NOT REPORT WEATHER SUCH 
AS PRECIPITATION OR FOG.  


IAZ055>058-069>071-079>083-090>094-210100-
   SOUTHWEST IOWA
  
CITY           SKY/WX    TMP DP  RH WIND       PRES   REMARKS
ATLANTIC *     PTSUNNY   73  64  73 S6        30.10S TC  23           
AUDUBON *      CLOUDY    72  66  83 CALM      30.13R TC  22           
CLARINDA *     CLOUDY    73  68  83 CALM      30.12F TC  23           
COUNCIL BLFS * SUNNY     73  66  78 SE7       30.09S TC  23           
CRESTON *      CLOUDY    70  68  94 E8        30.12S TC  21           
HARLAN  *      MOSUNNY   73  68  83 S5        30.12R TC  23           
LAMONI         CLOUDY    68  65  90 SW5       30.12S TC  20           
6HR MIN TEMP:  67; 6HR MAX TEMP:  76; 6HR PCP: TRACE;                

RED OAK *      CLOUDY    75  63  64 SE5       30.11S TC  24           
SHENANDOAH *   CLOUDY    75  64  69 VRB5      30.09F TC  24           
$$
 

SKY/WX - Weather  TMP - Temperature  DP - Dew Point  RH - Humidity
WIND - Wind Direction/Speed PRES - Barometric Pressure VSB - Visibility
WCI - Wind Chill Index E13G22 Wind - East Wind 13 mph/Gusts of 22 mph

Trending Headlines

Trending Entertainment Headlines

Defiance Radar Loop

Use the map search tool if you want to place a location marker on the radar map...

Defiance Quick Facts

National Two Day Weather Forecast


E-mail the Defiance Weather Forecast

Voice your opinion or tell us about page issues...